Date String (YYYY-MM-DD hh:mm:ss) UTC,Instrument flags,Ambient pressure (hPa),Sample flow (lpm),Bypass flow (lpm),Sample temperature (°C),Ambient temperature (°C),ASC tube jacket temperature (°C),LED temperature (°C),Box temperature (°C),Sample RH (%),Span deviation,Mass concentration (μg/m³),Mass concentration (μg/m³),Mass concentration (μg/m³)
DateTimeUTC,F1_M11,P_M11,Q1_M11,Q2_M11,T1_M11,T2_M11,T3_M11,T4_M11,T5_M11,U1_M11,ZSPAN_M11,X0_M11,X2_M11,X1_M11
2023-05-28 08:00:00,,0829.7,5.00,0.00,29.9,28.1,00.0,38.3,31.4,22.3,0000.0,0007.94,0003.70,0002.85
2023-05-28 08:01:00,,0829.8,5.01,0.00,29.9,28.1,00.0,38.3,31.4,22.3,0000.0,0007.91,0003.69,0002.86
2023-05-28 08:02:00,,0829.7,5.01,0.00,29.9,28.1,00.0,38.3,31.4,22.4,0000.0,0007.89,0003.71,0002.88
2023-05-28 08:03:00,,0829.7,5.00,0.00,29.9,28.1,00.0,38.3,31.4,22.3,0000.0,0008.06,0003.79,0002.91
2023-05-28 08:04:00,,0829.7,4.99,0.00,29.9,28.0,00.0,38.3,31.3,22.3,0000.0,0008.07,0003.81,0002.92
2023-05-28 08:05:00,,0829.7,5.00,0.00,29.8,27.9,00.0,38.3,31.3,22.2,0000.0,0007.98,0003.84,0002.94
2023-05-28 08:06:00,,0829.7,5.00,0.00,29.8,27.9,00.0,38.3,31.3,22.1,0000.0,0007.90,0003.79,0002.94
2023-05-28 08:07:00,,0829.7,5.01,0.00,29.8,27.9,00.0,38.3,31.3,22.1,0000.0,0007.90,0003.81,0002.96
2023-05-28 08:08:00,,0829.7,5.00,0.00,29.8,27.9,00.0,38.3,31.3,22.0,0000.0,0007.65,0003.80,0002.97
2023-05-28 08:09:00,,0829.7,5.01,0.00,29.8,27.9,00.0,38.3,31.3,22.0,0000.0,0007.18,0003.80,0003.00
2023-05-28 08:10:00,,0829.6,5.01,0.00,29.8,27.9,00.0,38.2,31.3,22.0,0000.0,0007.43,0003.84,0003.03
2023-05-28 08:11:00,,0829.7,4.99,0.00,29.8,28.0,00.0,38.2,31.3,21.9,0000.0,0007.49,0003.86,0003.05
2023-05-28 08:12:00,,0829.7,5.00,0.00,29.8,28.0,00.0,38.2,31.3,21.9,0000.0,0007.45,0003.89,0003.09
2023-05-28 08:13:00,,0829.7,4.99,0.00,29.8,28.0,00.0,38.2,31.3,21.9,0000.0,0007.44,0003.89,0003.10
2023-05-28 08:14:00,,0829.7,5.00,0.00,29.8,28.0,00.0,38.2,31.3,21.9,0000.0,0007.48,0003.88,0003.11
2023-05-28 08:15:00,,0829.7,5.00,0.00,29.8,28.1,00.0,38.2,31.3,21.8,0000.0,0007.73,0003.89,0003.12
2023-05-28 08:16:00,,0829.7,5.00,0.00,29.8,28.1,00.0,38.2,31.3,21.7,0000.0,0007.80,0003.86,0003.13
2023-05-28 08:17:00,,0829.7,5.00,0.00,29.8,28.0,00.0,38.2,31.3,21.7,0000.0,0007.78,0003.86,0003.13
2023-05-28 08:18:00,,0829.7,5.01,0.00,29.8,28.0,00.0,38.2,31.3,21.6,0000.0,0007.74,0003.85,0003.13
2023-05-28 08:19:00,,0829.6,5.00,0.00,29.8,28.0,00.0,38.2,31.3,21.5,0000.0,0007.64,0003.81,0003.12
2023-05-28 08:20:00,,0829.7,5.00,0.00,29.8,28.0,00.0,38.2,31.3,21.5,0000.0,0007.66,0003.81,0003.13
2023-05-28 08:21:00,,0829.7,4.99,0.00,29.8,28.0,00.0,38.2,31.3,21.6,0000.0,0007.54,0003.78,0003.13
2023-05-28 08:22:00,,0829.7,4.99,0.00,29.8,28.0,00.0,38.2,31.3,21.6,0000.0,0007.48,0003.76,0003.12
2023-05-28 08:23:00,,0829.6,5.01,0.00,29.7,28.0,00.0,38.2,31.3,21.7,0000.0,0007.49,0003.76,0003.13
2023-05-28 08:24:00,,0829.6,5.01,0.00,29.7,28.0,00.0,38.2,31.3,21.6,0000.0,0007.56,0003.76,0003.12
2023-05-28 08:25:00,,0829.6,5.00,0.00,29.7,28.0,00.0,38.1,31.3,21.5,0000.0,0007.58,0003.77,0003.13
2023-05-28 08:26:00,,0829.6,5.00,0.00,29.7,28.0,00.0,38.1,31.3,21.5,0000.0,0007.52,0003.79,0003.13
2023-05-28 08:27:00,,0829.5,5.00,0.00,29.7,28.0,00.0,38.1,31.3,21.5,0000.0,0007.63,0003.84,0003.13
2023-05-28 08:28:00,,0829.5,5.00,0.00,29.7,28.0,00.0,38.1,31.2,21.5,0000.0,0007.81,0003.89,0003.14
2023-05-28 08:29:00,,0829.5,5.00,0.00,29.7,28.0,00.0,38.1,31.2,21.5,0000.0,0008.02,0003.98,0003.15
2023-05-28 08:30:00,,0829.5,5.00,0.00,29.7,28.0,00.0,38.1,31.2,21.5,0000.0,0008.46,0004.01,0003.16
2023-05-28 08:31:00,,0829.5,4.99,0.00,29.7,28.0,00.0,38.1,31.2,21.5,0000.0,0008.54,0004.00,0003.16
2023-05-28 08:32:00,,0829.4,5.00,0.00,29.7,27.9,00.0,38.1,31.2,21.5,0000.0,0008.75,0004.01,0003.16
2023-05-28 08:33:00,,0829.4,5.01,0.00,29.7,27.9,00.0,38.1,31.2,21.5,0000.0,0009.55,0004.04,0003.19
2023-05-28 08:34:00,,0829.3,5.01,0.00,29.7,27.8,00.0,38.1,31.2,21.6,0000.0,0009.56,0004.05,0003.20
2023-05-28 08:35:00,,0829.3,5.01,0.00,29.6,27.7,00.0,38.1,31.1,21.6,0000.0,0009.48,0004.04,0003.21
2023-05-28 08:36:00,,0829.3,4.99,0.00,29.6,27.7,00.0,38.1,31.1,21.7,0000.0,0009.27,0004.01,0003.22
2023-05-28 08:37:00,,0829.3,5.00,0.00,29.6,27.7,00.0,38.1,31.1,21.6,0000.0,0009.29,0004.02,0003.22
2023-05-28 08:38:00,,0829.3,5.00,0.00,29.6,27.6,00.0,38.0,31.0,21.6,0000.0,0009.21,0004.05,0003.23
2023-05-28 08:39:00,,0829.4,4.99,0.00,29.5,27.6,00.0,38.0,31.0,21.6,0000.0,0008.94,0004.01,0003.23
2023-05-28 08:40:00,,0829.4,5.00,0.00,29.5,27.6,00.0,38.0,31.0,21.6,0000.0,0008.74,0003.93,0003.23
2023-05-28 08:41:00,,0829.4,5.02,0.00,29.5,27.6,00.0,38.0,31.0,21.6,0000.0,0008.47,0003.93,0003.25
2023-05-28 08:42:00,,0829.4,5.01,0.00,29.5,27.6,00.0,38.0,31.0,21.6,0000.0,0008.28,0003.97,0003.26
2023-05-28 08:43:00,,0829.4,5.00,0.00,29.5,27.6,00.0,38.0,31.0,21.6,0000.0,0008.35,0004.00,0003.27
2023-05-28 08:44:00,,0829.3,5.00,0.00,29.5,27.6,00.0,38.0,31.0,21.6,0000.0,0007.32,0003.98,0003.26
2023-05-28 08:45:00,,0829.4,5.00,0.00,29.5,27.7,00.0,37.9,31.0,21.6,0000.0,0007.30,0003.98,0003.25
2023-05-28 08:46:00,,0829.4,4.99,0.00,29.5,27.7,00.0,37.9,31.0,21.6,0000.0,0007.33,0003.98,0003.24
2023-05-28 08:47:00,,0829.4,4.99,0.00,29.5,27.7,00.0,37.9,31.0,21.5,0000.0,0007.50,0004.02,0003.24
2023-05-28 08:48:00,,0829.4,5.00,0.00,29.5,27.7,00.0,37.9,31.0,21.5,0000.0,0007.43,0003.99,0003.24
2023-05-28 08:49:00,,0829.4,5.00,0.00,29.5,27.7,00.0,37.9,31.0,21.5,0000.0,0007.36,0003.96,0003.26
2023-05-28 08:50:00,,0829.4,5.01,0.00,29.5,27.7,00.0,37.9,31.0,21.5,0000.0,0007.38,0003.97,0003.26
2023-05-28 08:51:00,,0829.4,5.00,0.00,29.5,27.7,00.0,37.9,31.0,21.5,0000.0,0007.45,0003.99,0003.25
2023-05-28 08:52:00,,0829.3,5.00,0.00,29.5,27.7,00.0,37.9,31.0,21.5,0000.0,0007.43,0003.97,0003.24
2023-05-28 08:53:00,,0829.2,4.99,0.00,29.4,27.6,00.0,37.9,31.0,21.5,0000.0,0007.41,0003.95,0003.23
2023-05-28 08:54:00,,0829.2,4.99,0.00,29.4,27.6,00.0,37.9,31.0,21.4,0000.0,0007.38,0003.96,0003.23
2023-05-28 08:55:00,,0829.2,5.00,0.00,29.4,27.6,00.0,37.9,30.9,21.4,0000.0,0007.36,0003.96,0003.24
2023-05-28 08:56:00,,0829.2,5.00,0.00,29.4,27.5,00.0,37.9,30.9,21.4,0000.0,0007.31,0003.93,0003.24
2023-05-28 08:57:00,,0829.2,5.00,0.00,29.4,27.5,00.0,37.8,30.9,21.3,0000.0,0007.26,0003.92,0003.25
2023-05-28 08:58:00,,0829.1,5.01,0.00,29.4,27.5,00.0,37.8,30.9,21.3,0000.0,0006.99,0003.87,0003.25
2023-05-28 08:59:00,,0829.2,4.99,0.00,29.4,27.5,00.0,37.8,30.9,21.3,0000.0,0006.91,0003.87,0003.25
